Home > Weather > Petah Tikva > Past weeks

Flag for Israel Past Weather in Petah Tikva, Israel — Yesterday and Last 2 Weeks

Now
77 °F

Clear.


Feels Like: 79 °F
Forecast: 77 / 92 °F
Wind: 3 mph from North

Location: Ben Gurion International Airport

Current Time: Jun 25, 2016 at 2:57:20 AM

Latest Report: Jun 25, 2016 at 2:20 AM


Visibility: 10 mi

Pressure: 29.68 "Hg

Humidity: 79%

Dew Point: 70 °F

Location of Petah TikvaLocation

Past Weather in Petah Tikva — Graph

°F

Petah Tikva Temperature Yesterday

Maximum temperature yesterday: 90 °F (at 10:50 AM)
Minimum temperature yesterday: 75 °F (at 2:20 AM)
Average temperature yesterday: 83 °F

High & Low Weather Summary for the Past Weeks

 TemperatureHumidityPressure
High97 °F (Jun 14, 3:50 PM)94% (Jun 20, 4:20 AM)30.01 "Hg (Jun 20, 4:20 AM)
Low66 °F (Jun 13, 6:20 AM)20% (Jun 14, 4:50 PM)29.68 "Hg (Jun 24, 3:20 PM)
Average80 °F60%29.81 "Hg
* Reported Jun 10 1:20 AM — Jun 25 1:20 AM, Petah Tikva, Weather by CustomWeather, © 2016

Note: Actual official high and low records may vary slightly from our data, if they occured in-between our weather recording intervals... More about our weather records

Advertising

Petah Tikva Weather History for the Previous 24 Hours

Scroll right to see more
 ConditionsComfort  
Time TempWeatherWind HumidityBarometerVisibility
1:20 AM
Sat, Jun 25
79 °FClear.6 mph79%29.68 "Hg10 mi
12:50 AM79 °FClear.5 mph79%29.68 "Hg10 mi
12:20 AM79 °FClear.2 mph79%29.71 "Hg10 mi
11:50 PM
Fri, Jun 24
79 °FClear.3 mph79%29.71 "Hg10 mi
11:20 PM79 °FClear.2 mph79%29.71 "Hg10 mi
10:50 PM81 °FClear.2 mph79%29.71 "Hg10 mi
10:20 PM81 °FClear.2 mph79%29.71 "Hg10 mi
9:50 PM81 °FClear.3 mph79%29.71 "Hg10 mi
9:20 PM81 °FClear.5 mph74%29.71 "Hg10 mi
8:50 PM81 °FClear.3 mph74%29.71 "Hg10 mi
8:20 PM82 °FSunny.5 mph70%29.68 "Hg10 mi
7:50 PM82 °FSunny.7 mph74%29.68 "Hg10 mi
7:20 PM84 °FSunny.7 mph66%29.71 "Hg10 mi
6:50 PM86 °FSunny.8 mph59%29.68 "Hg10 mi
6:20 PM86 °FSunny.9 mph59%29.68 "Hg10 mi
5:50 PM88 °FSunny.9 mph55%29.68 "Hg10 mi
5:20 PM88 °FSunny.9 mph55%29.68 "Hg10 mi
4:50 PM88 °FSunny.10 mph55%29.68 "Hg10 mi
4:20 PM88 °FSunny.12 mph55%29.68 "Hg10 mi
3:50 PM88 °FSunny.13 mph59%29.68 "Hg10 mi
3:20 PM88 °FSunny.13 mph59%29.68 "Hg10 mi
2:50 PM88 °FSunny.12 mph55%29.71 "Hg10 mi
2:20 PM88 °FSunny.12 mph55%29.71 "Hg10 mi
1:50 PM90 °FSunny.10 mph52%29.71 "Hg10 mi
1:20 PM88 °FSunny.12 mph59%29.71 "Hg10 mi
12:50 PM88 °FSunny.13 mph59%29.71 "Hg10 mi
12:20 PM88 °FSunny.13 mph79%29.71 "Hg10 mi
11:50 AM88 °FPassing clouds.13 mph62%29.71 "HgN/A
11:20 AM90 °FSunny.12 mph59%29.71 "Hg10 mi
10:50 AM90 °FSunny.8 mph49%29.71 "Hg10 mi
10:20 AM88 °FPassing clouds.6 mph55%29.71 "HgN/A
9:50 AM86 °FPassing clouds.7 mph59%29.74 "HgN/A
9:20 AM84 °FPassing clouds.6 mph66%29.74 "HgN/A
8:50 AM81 °FPassing clouds.6 mph74%29.74 "HgN/A
8:20 AM81 °FSunny.8 mph74%29.74 "Hg10 mi
7:50 AM79 °FPassing clouds.6 mph79%29.74 "HgN/A
7:20 AM79 °FPassing clouds.6 mph74%29.74 "HgN/A
6:50 AM82 °FPartly sunny.13 mph70%29.74 "HgN/A
6:20 AM77 °FPassing clouds.7 mph79%29.74 "HgN/A
5:50 AM77 °FPassing clouds.7 mph79%29.74 "HgN/A
5:20 AM77 °FPassing clouds.7 mph79%29.74 "HgN/A
4:50 AM77 °FPassing clouds.6 mph79%29.74 "HgN/A
4:20 AM75 °FPassing clouds.7 mph78%29.74 "HgN/A
3:50 AM77 °FPassing clouds.6 mph74%29.74 "HgN/A
3:20 AM77 °FPassing clouds.5 mph83%29.74 "HgN/A
2:50 AM77 °FPassing clouds.5 mph83%29.74 "HgN/A
2:20 AM75 °FPassing clouds.3 mph89%29.71 "HgN/A
Weather by CustomWeather, © 2016

See weather overviewHow to use our weather pages